[[{"header":{"parameterUnit":"m.s-1","parameterCategory":1,"la1":30.2991,"la2":30.254,"lo1":-89.0895,"lo2":-89.0444,"dy":0.0017,"dx":0.0017,"nx":28,"ny":28,"refTime":"2023-09-03T03:00:00:Z","depth":0,"parameterNumber":2,"parameterNumberName":"U-component_of_WINDS"},"data":[0,0,0,0,0,0,0,0,0,0,0,0,0,0,0,0,0,0,0,0,0,0,0,0,0,0,0,0,0,0,0,0,0,0,0,0,0,0,0,0,0,0,0,0,0,0,0,0,0,0,0,0,0,0,0,0,0,0,-4.5756,-4.5755,0,-4.5729,-4.5728,-4.5728,-4.5604,-4.5601,-4.5598,-4.5595,-4.5569,-4.5571,-4.5573,0,0,0,0,0,0,0,0,0,0,0,0,0,-4.5702,-4.5704,-4.5756,-4.5755,-4.5755,-4.5729,-4.5728,-4.5728,-4.5605,-4.5601,-4.5597,-4.5594,-4.5568,-4.5571,-4.5573,0,0,0,0,0,0,0,0,0,0,0,0,0,-4.5706,-4.5704,-4.5756,-4.569,-4.5684,-4.5729,-4.5728,-4.5728,-4.5605,-4.5601,-4.5597,-4.5592,-4.5568,-4.5571,-4.5574,-4.568,0,0,-4.5583,-4.5584,0,0,0,0,0,0,0,0,-4.5706,-4.5708,-4.57,-4.5695,-4.5688,-4.5665,-4.57,-4.5712,-4.5606,-4.5635,-4.5595,-4.559,-4.5605,-4.5604,-4.5609,-4.5678,-4.5677,-4.5583,-4.5585,-4.5586,-4.5587,0,0,0,0,0,0,0,-4.5705,-4.5708,-4.5745,-4.57,-4.5693,-4.5663,-4.5658,-4.5701,-4.5645,-4.5632,-4.5623,-4.5622,-4.5601,-4.5606,-4.5607,-4.5677,-4.5583,-4.5586,-4.5588,-4.5589,-4.5832,-4.5836,0,0,0,0,0,0,-4.5714,-4.5709,-4.5746,-4.5744,-4.5686,-4.5667,-4.5662,-4.5677,-4.5644,-4.5635,-4.5626,-4.5616,-4.5603,-4.5604,-4.5606,-4.5727,-4.5586,-4.5589,-4.5591,-4.5827,-4.5833,-4.5838,0,0,0,0,0,0,-4.5714,-4.5719,-4.5747,-4.5724,-4.5725,-4.5673,-4.569,-4.5679,-4.5684,-4.5639,-4.5628,-4.5642,-4.56,-4.5602,-4.5662,-4.5724,-4.559,-4.5593,-4.5822,-4.5829,-4.5835,-4.597,0,0,0,0,0,0,-4.5713,-4.5719,-4.5758,-4.5726,-4.5727,-4.5803,-4.5694,-4.5681,-4.569,-4.5677,-4.5651,-4.5643,-4.5597,-4.5658,-4.5665,-4.5726,-4.5595,-4.5816,-4.5825,-4.5833,-4.596,-4.5981,-4.5999,0,0,0,0,0,-4.5711,-4.5798,-4.5761,-4.5766,-4.5774,-4.5807,-4.5807,-4.5752,-4.5695,-4.5734,-4.5705,-4.5643,-4.5717,-4.5665,-4.5672,-4.5735,-4.5812,-4.5822,-4.5832,-4.5951,-4.5977,-4.5999,0,0,0,0,0,0,-4.5838,-4.5792,-4.5751,-4.5829,-4.5823,-4.5786,-4.5833,-4.5781,-4.5791,-4.5779,-4.5711,-4.5706,-4.5776,-4.5762,-4.5705,-4.5836,-4.5754,-4.5766,-4.5842,-4.5866,-4.5885,-4.5886,-4.5598,0,0,0,0,0,-4.5876,-4.5906,-4.5863,-4.5937,-4.5936,-4.5886,-4.5898,-4.5856,-4.5847,-4.5843,-4.5819,-4.5813,-4.5834,-4.585,-4.5867,-4.5959,-4.5951,-4.6005,-4.6025,-4.6041,-4.6052,-4.6098,-4.6122,-4.5872,-4.5872,-4.5872,0,0,-4.5953,-4.5931,-4.5954,-4.5962,-4.5952,-4.5984,-4.5884,-4.5922,-4.5946,-4.5849,-4.5904,-4.5887,-4.5875,-4.5952,-4.5984,-4.5942,-4.612,-4.6054,-4.6068,-4.6069,-4.6112,-4.6135,-4.6156,-4.5879,-4.5878,-4.5877,0,0,-4.6109,-4.6097,-4.6156,-4.6148,-4.6135,-4.6101,-4.6116,-4.6087,-4.6071,-4.6126,-4.6054,-4.6082,-4.6121,-4.6115,-4.6118,-4.6276,-4.6219,-4.6284,-4.6384,-4.6431,-4.645,-4.6467,-4.6522,-4.6543,-4.6295,-4.6295,-4.6295,0,-4.6206,-4.6252,-4.6193,-4.6236,-4.6242,-4.6157,-4.6216,-4.6212,-4.6206,-4.6212,-4.6165,-4.6212,-4.6199,-4.6272,-4.6311,-4.6317,-4.6331,-4.6284,-4.6452,-4.6469,-4.6484,-4.6535,-4.6556,-4.6303,-4.6302,-4.6301,-4.6301,0,-4.6372,-4.6405,-4.6454,-4.645,-4.6461,-4.6513,-4.6462,-4.6482,-4.644,-4.6412,-4.6469,-4.645,-4.6462,-4.6477,-4.6437,-4.6546,-4.652,-4.6464,-4.638,-4.6516,-4.6563,-4.6583,-4.6314,-4.6311,-4.6309,-4.6307,0,0,-4.6604,-4.6568,-4.6587,-4.6584,-4.6564,-4.6588,-4.6637,-4.6649,-4.6666,-4.6666,-4.6704,-4.674,-4.6689,-4.6692,-4.6651,-4.6692,-4.6817,-4.6631,-4.663,-4.6665,-4.6934,-4.6975,-4.6998,-4.6781,-4.6784,-4.6787,-4.6935,0,-4.6752,-4.6831,-4.678,-4.6868,-4.6897,-4.6819,-4.6861,-4.6854,-4.683,-4.6852,-4.6825,-4.6851,-4.6782,-4.6783,-4.6821,-4.6794,-4.687,-4.6783,-4.6815,-4.6817,-4.6817,-4.7023,-4.7065,-4.7205,-4.6953,-4.6956,-4.6958,0,-4.6933,-4.694,-4.7031,-4.7006,-4.7016,-4.7055,-4.7062,-4.7085,-4.7076,-4.7055,-4.706,-4.701,-4.7056,-4.6976,-4.7039,-4.6981,-4.6992,-4.6981,-4.6985,-4.6983,-4.6894,-4.7025,-4.7249,-4.7269,-4.6987,-4.6985,-4.6983,0,-4.7092,-4.7124,-4.7182,-4.7183,-4.7155,-4.7184,-4.7175,-4.7161,-4.7172,-4.7179,-4.7185,-4.7198,-4.7205,-4.7216,-4.7171,-4.7117,-4.724,-4.7156,-4.7223,-4.7225,-4.725,-4.7248,-4.7476,-4.7262,-4.7262,-4.7261,-4.7261,0,-4.726,-4.7318,-4.7253,-4.7288,-4.7351,-4.7294,-4.7358,-4.734,-4.733,-4.7361,-4.7295,-4.7326,-4.7265,-4.729,-4.7255,-4.7312,-4.7316,-4.73,-4.729,-4.7305,-4.7306,-4.7309,-4.7297,-4.7267,-4.7266,-4.7265,-4.7264,0,-4.7445,-4.7404,-4.7462,-4.7433,-4.7427,-4.7474,-4.7449,-4.7481,-4.7453,-4.7494,-4.75,-4.7457,-4.7483,-4.744,-4.7461,-4.7437,-4.7516,-4.7492,-4.7518,-4.751,-4.758,-4.7573,-4.7814,-4.7842,-4.7613,-4.7616,-4.7617,0,-4.7554,-4.7597,-4.7572,-4.7588,-4.7582,-4.7609,-4.7619,-4.7566,-4.758,-4.7574,-4.7607,-4.7628,-4.764,-4.7686,-4.7657,-4.7673,-4.7647,-4.7731,-4.7649,-4.7663,-4.7646,-4.7643,-4.7646,-4.7747,-4.775,-4.7752,-4.7754,0,-4.7751,-4.7729,-4.7746,-4.7758,-4.7773,-4.7779,-4.7781,-4.7798,-4.7741,-4.7761,-4.7786,-4.7797,-4.7819,-4.784,-4.7849,-4.7839,-4.7787,-4.778,-4.7796,-4.781,-4.7823,-4.7815,-4.7562,-4.7774,-4.7772,-4.7771,-4.7769,-4.7769,-4.7899,-4.7934,-4.7922,-4.7944,-4.794,-4.7943,-4.7972,-4.7949,-4.7969,-4.7982,-4.795,-4.7983,-4.7975,-4.7982,-4.7978,-4.8004,-4.7967,-4.7991,-4.7996,-4.8002,-4.8012,-4.7822,-4.8006,-4.8005,-4.8005,-4.8004,-4.8004,0,-4.8091,-4.808,-4.8101,-4.8105,-4.8123,-4.8074,-4.8074,-4.8092,-4.8122,-4.8119,-4.8134,-4.8164,-4.8185,-4.8158,-4.8174,-4.82,-4.8177,-4.8206,-4.8202,-4.82,-4.8045,-4.8029,-4.8225,-4.8225,-4.8224,-4.8224,-4.8224,-4.8224,-4.8192,-4.8247,-4.8224,-4.8277,-4.8266,-4.8298,-4.8302,-4.8305,-4.8302,-4.8338,-4.8355,-4.8338,-4.8326,-4.8341,-4.8358,-4.8349,-4.8358,-4.8395,-4.8378,-4.8233,-4.8211,-4.8191,-4.8175,-4.8398,-4.8398,-4.8531,-4.8532,-4.8533]},{"header":{"parameterUnit":"m.s-1","parameterCategory":1,"la1":30.2991,"la2":30.254,"lo1":-89.0895,"lo2":-89.0444,"dy":0.0017,"dx":0.0017,"nx":28,"ny":28,"refTime":"2023-09-03T03:00:00:Z","depth":0,"parameterNumber":3,"parameterNumberName":"V-component_of_WINDS"},"data":[0,0,0,0,0,0,0,0,0,0,0,0,0,0,0,0,0,0,0,0,0,0,0,0,0,0,0,0,0,0,0,0,0,0,0,0,0,0,0,0,0,0,0,0,0,0,0,0,0,0,0,0,0,0,0,0,0,0,2.0471,2.0472,0,2.0553,2.0554,2.0554,2.0586,2.0586,2.0586,2.0586,2.0666,2.0668,2.0671,0,0,0,0,0,0,0,0,0,0,0,0,0,2.0341,2.0344,2.0471,2.0472,2.0473,2.0552,2.0554,2.0555,2.0586,2.0586,2.0586,2.0585,2.0665,2.0668,2.0671,0,0,0,0,0,0,0,0,0,0,0,0,0,2.0408,2.0344,2.0471,2.0499,2.0502,2.0552,2.0554,2.0555,2.0586,2.0586,2.0586,2.0585,2.0664,2.0668,2.0671,2.0699,0,0,2.0682,2.0684,0,0,0,0,0,0,0,0,2.0404,2.0412,2.0493,2.0497,2.0501,2.0559,2.0537,2.0603,2.0586,2.0554,2.0586,2.0585,2.0631,2.0637,2.0653,2.0703,2.0707,2.0682,2.0685,2.0686,2.0687,0,0,0,0,0,0,0,2.0399,2.0409,2.0503,2.0495,2.0499,2.0506,2.0515,2.055,2.0593,2.0557,2.0559,2.0569,2.0632,2.0649,2.0655,2.0708,2.0682,2.0685,2.0688,2.0689,2.0787,2.0788,0,0,0,0,0,0,2.039,2.0405,2.0501,2.0506,2.0451,2.0509,2.0519,2.054,2.0593,2.0601,2.0569,2.057,2.0643,2.0651,2.0658,2.0695,2.0686,2.0689,2.0691,2.0787,2.0787,2.0788,0,0,0,0,0,0,2.0387,2.0399,2.0497,2.0456,2.0469,2.0512,2.0535,2.0542,2.0559,2.0602,2.061,2.0578,2.0643,2.0653,2.0689,2.0698,2.0691,2.0694,2.0786,2.0787,2.0788,2.0769,0,0,0,0,0,0,2.0384,2.0397,2.0409,2.0456,2.0471,2.0528,2.0536,2.0544,2.0566,2.0568,2.0613,2.062,2.0644,2.0684,2.0693,2.0703,2.0697,2.0785,2.0786,2.0787,2.0769,2.0769,2.0769,0,0,0,0,0,2.0379,2.0399,2.0409,2.042,2.0486,2.0528,2.0537,2.0565,2.0566,2.0578,2.0606,2.0619,2.0696,2.0687,2.0698,2.0709,2.0785,2.0786,2.0787,2.0769,2.0769,2.0769,0,0,0,0,0,0,2.035,2.0406,2.0417,2.0454,2.0486,2.0534,2.0549,2.0564,2.0596,2.0596,2.0629,2.0639,2.0673,2.0695,2.0684,2.074,2.0742,2.0745,2.0724,2.0725,2.0725,2.0718,2.07,0,0,0,0,0,2.0348,2.0378,2.0425,2.0453,2.0469,2.0506,2.0525,2.0544,2.0579,2.0592,2.0623,2.0655,2.0687,2.0707,2.0739,2.0773,2.0783,2.0786,2.0786,2.0786,2.0788,2.0808,2.081,2.0792,2.0792,2.0792,0,0,2.0344,2.0378,2.0395,2.0448,2.0475,2.0505,2.0517,2.0548,2.0571,2.0597,2.0634,2.0657,2.0696,2.0731,2.0749,2.0751,2.0796,2.0787,2.0787,2.0789,2.081,2.0811,2.0813,2.0792,2.0792,2.0792,0,0,2.0352,2.038,2.0407,2.0435,2.0477,2.0502,2.0509,2.0555,2.0572,2.061,2.063,2.0658,2.0711,2.0738,2.0759,2.078,2.0793,2.0789,2.0789,2.0809,2.081,2.0812,2.0819,2.0821,2.0791,2.0791,2.0791,0,2.0341,2.0387,2.0419,2.045,2.0472,2.0499,2.0527,2.0552,2.0601,2.0617,2.0618,2.0688,2.0716,2.0759,2.0764,2.078,2.0788,2.0783,2.0808,2.0809,2.0811,2.0819,2.0821,2.079,2.0791,2.0791,2.0791,0,2.0372,2.0405,2.0421,2.047,2.0495,2.0524,2.0559,2.0581,2.0598,2.0623,2.0662,2.0697,2.0736,2.0748,2.0765,2.0794,2.0794,2.0801,2.0803,2.0812,2.0819,2.0822,2.0789,2.079,2.079,2.079,0,0,2.0362,2.043,2.0436,2.0459,2.0509,2.0534,2.0564,2.0604,2.0622,2.0656,2.0682,2.0729,2.0736,2.076,2.078,2.0797,2.0812,2.0803,2.0804,2.0803,2.0847,2.0841,2.0844,2.0822,2.0823,2.0823,2.0844,0,2.0377,2.0433,2.0463,2.0507,2.0537,2.0564,2.0591,2.0624,2.0648,2.0678,2.0705,2.0737,2.0745,2.0759,2.0778,2.0806,2.0821,2.0806,2.0846,2.0847,2.0835,2.0848,2.0841,2.0859,2.0847,2.0848,2.0848,0,2.0401,2.0436,2.0483,2.053,2.0544,2.0568,2.0608,2.0635,2.0674,2.0691,2.0718,2.0738,2.0772,2.0772,2.0818,2.0807,2.0826,2.0842,2.0844,2.0848,2.0848,2.0852,2.0865,2.0868,2.0853,2.0853,2.0853,0,2.0389,2.0448,2.0484,2.0503,2.056,2.0576,2.0599,2.0638,2.066,2.0695,2.0711,2.0748,2.0769,2.0798,2.0828,2.0826,2.0871,2.0874,2.0886,2.0885,2.0893,2.0892,2.0909,2.0906,2.0906,2.0906,2.0906,0,2.0402,2.0429,2.048,2.0502,2.0534,2.0569,2.0599,2.0625,2.066,2.0687,2.0713,2.0738,2.0776,2.0806,2.083,2.0865,2.0874,2.0888,2.0894,2.0886,2.0884,2.0898,2.0897,2.0907,2.0906,2.0906,2.0906,0,2.0394,2.0429,2.047,2.0521,2.0534,2.0556,2.0599,2.0621,2.0648,2.0682,2.0693,2.0734,2.0771,2.0804,2.0853,2.0869,2.0904,2.0912,2.0891,2.0895,2.0904,2.0903,2.093,2.0936,2.0929,2.0929,2.0929,0,2.0399,2.0422,2.0475,2.0496,2.052,2.0553,2.0577,2.0613,2.0636,2.0683,2.07,2.0739,2.0772,2.0829,2.0863,2.0901,2.0909,2.0917,2.0915,2.0906,2.0909,2.0908,2.091,2.0916,2.0916,2.0916,2.0916,0,2.0406,2.0423,2.0457,2.0497,2.0526,2.0559,2.0593,2.0608,2.065,2.0675,2.0714,2.074,2.079,2.0829,2.0871,2.0895,2.0912,2.0916,2.0921,2.0912,2.0899,2.0906,2.089,2.0915,2.0915,2.0915,2.0915,2.0915,2.0405,2.0426,2.0468,2.0505,2.0535,2.0567,2.0591,2.0622,2.0655,2.0699,2.0718,2.0757,2.0796,2.0855,2.0879,2.091,2.0913,2.092,2.0922,2.0923,2.0921,2.0895,2.0918,2.0918,2.0918,2.0918,2.0918,0,2.0413,2.0441,2.0476,2.0523,2.0553,2.0568,2.0607,2.0631,2.0665,2.0701,2.0733,2.0778,2.0816,2.0854,2.0894,2.0912,2.0921,2.0921,2.092,2.0925,2.0916,2.0908,2.0913,2.0913,2.0913,2.0913,2.0913,2.0913,2.042,2.0458,2.048,2.0532,2.0561,2.06,2.0621,2.0651,2.0679,2.0729,2.0761,2.0786,2.0823,2.0866,2.0901,2.0911,2.0925,2.0923,2.0935,2.0925,2.0926,2.0926,2.0918,2.0925,2.0925,2.0942,2.0942,2.0942]}]]